User: anonymous   Login
Location: Caltech
(34.1382°N, 118.1253°W)
Time: 12:22:58
(UTC-07:00)
Language:

Cosmos 2237 Rocket - Orbit

View from above orbital plane
View from above orbital plane
View from above satellite
View from above satellite

Ground track
Ground track

The orbit data is extracted from the following two-line orbital elements,

1 22566U 93016B   15239.40139733  .00000222  00000-0  13925-3 0  9999
2 22566 071.0094 011.8042 0008681 049.5029 310.6848 14.14909959157949
Epoch (UTC): 27 August 2015 09:38:00
Eccentricity: 0.0008681
inclination: 71.0094°
perigee height: 836 km
apogee height: 849 km
right ascension of ascending node: 11.8042°
argument of perigee: 49.5029°
revolutions per day: 14.14909959
mean anomaly at epoch: 310.6848°
orbit number at epoch: 15794

The dashed part of the orbit path shows where the satellite is in the earth's shadow,  

DLR